Regional Weather Roundup
Issued by NWS

Home | Current Version | Previous Version | Graphics & Text | Print | Product List | Glossary On
Versions: 1 2 3 4 5 6 7 8 9 10 11 12 13 14 15 16 17 18 19 20 21 22 23 24 25 26 27 28 29 30 31 32 33 34 35 36 37 38 39 40 41 42 43 44 45 46 47 48 49 50
000
ASUS43 KBIS 241410
RWRND

NORTH DAKOTA REGIONAL WEATHER ROUNDUP
NATIONAL WEATHER SERVICE BISMARCK ND
900 AM CDT THU APR 24 2014

NOTE: "FAIR" INDICATES FEW OR NO CLOUDS BELOW 12,000 FEET WITH NO
SIGNIFICANT WEATHER AND/OR OBSTRUCTIONS TO VISIBILITY.


NDZ001>003-009>011-017-241500-
NORTHWEST NORTH DAKOTA

CITY           SKY/WX    TMP DP  RH WIND       PRES   REMARKS
WILLISTON      SUNNY     43  28  55 W20G26    29.70S
MINOT          SUNNY     45  31  58 SW17      29.66S
MINOT AFB      SUNNY     43  36  76 W14       29.67R
$$

NDZ018>021-031>035-040>046-241500-
SOUTHWEST NORTH DAKOTA

CITY           SKY/WX    TMP DP  RH WIND       PRES   REMARKS
BISMARCK       SUNNY     44  29  55 W6        29.76R
DICKINSON      SUNNY     46  26  45 W18       29.74S
GARRISON         N/A     40  33  76 W6        29.71R
HETTINGER ARPT MOSUNNY   44  27  51 W16       29.81R
$$

NDZ004>008-012>016-024-026-027-054-241500-
NORTHEAST NORTH DAKOTA

CITY           SKY/WX    TMP DP  RH WIND       PRES   REMARKS
GRAND FORKS    CLOUDY    40  39  97 SE10      29.76F
GRND FRKS AFB  CLOUDY    40  40 100 S8        29.76F
DEVILS LAKE    CLOUDY    39  36  87 SE9       29.72S VSB 3/4
$$

NDZ022-023-025-028>030-036>039-047>053-241500-
SOUTHEAST NORTH DAKOTA

CITY           SKY/WX    TMP DP  RH WIND       PRES   REMARKS
FARGO          LGT RAIN  42  40  92 SE5       29.76S FOG
JAMESTOWN      FOG       37  37 100 S5        29.72S VSB<1/4
$$




USA.gov is the U.S. government's official web portal to all federal, state and local government web resources and services.